Location: Krasnoyarskiy Pitomnik
(51.1333°N, 71.6167°E)
Time: 12:05:07
(UTC+00:00)

Transit 2A - Pass Details

Date: 17 April 2024
Orbit: 593 x 958 km, 66.7° (Epoch: 30 May)

Event Time Altitude Azimuth Distance (km) Brightness Sun altitude
Rises 01:32:42 0° 173° (S) 2,833 9.0 11.3°
Reaches altitude 10° 01:35:22 10° 156° (SSE) 1,960 8.5 11.7°
Maximum altitude 01:38:32 20° 109° (ESE) 1,467 9.1 12.2°
Drops below altitude 10° 01:41:52 10° 63° (ENE) 2,072 9.7 12.7°
Sets 01:44:46 0° 47° (NE) 3,052 9.9 13.2°
